Starlink 32040

operational
NORAD ID: 60109 Int'l Des: 2024-117 Owner: SPXS Country: US Constellation: starlink
LEOCIRCULAR

About Starlink 32040

Description loading...

Live Position

Loading 3D Globe...

Upcoming Passes

Altitude History

Altitude vs Time

uPlot chart will show altitude changes over time

Two-Line Element Set

1 60109U 24117U 25349.44766890 -.00002744 00000-0 -80559-4 0 9998
2 60109 53.1610 68.0668 0001075 70.4985 289.6131 15.30201436 83998
Epoch: Dec 15, 2025 • Age: 24 hours

Current Status

Altitude 481.1 km
Velocity 7.63 km/s
Sub-Earth Point 53.22°N, 87.11°W
Launch Date Jun 23, 2024
Age 1.4 years
Type internet

Technical Details

Classification Payload
Mass 730.00 kg
Dry Mass 700.00 kg
Total Mass 730.00 kg
Length 0.30 m
Diameter 4.10 m
Span 29.00 m
Shape Box + pan
Manufacturer SPXS
Bus Type Starlink V2M
Phase Status In Orbit
Owner/State SPXS/US

Large Constellations

Loading constellations...